Flag for United Kingdom Weather past 2 weeks in London, England, United Kingdom

Now
57 °F

Overcast.


Feels Like: 57 °F
Forecast: 61 / 71 °F
Wind: 5 mph from Southwest

Location: Northolt

Current Time: Aug 29, 2015 at 4:17:36 AM

Latest Report: Aug 29, 2015 at 2:50 AM


Visibility: N/A

Pressure: 30.09 "Hg

Humidity: 88%

Dew point: 54 °F

Location of LondonLocation

Historic Weather in London — Graph

°F

London temperature yesterday

Maximum temperature yesterday: 68 °F (at 12:50 PM)
Minimum temperature yesterday: 48 °F (at 4:50 AM)
Average temperature yesterday: 60 °F

Past Weeks' High & Low Weather Summary

 TemperatureHumidityPressure
High86 °F (Aug 22, 1:50 PM)100% (Aug 14, 2:50 AM)30.12 "Hg (Aug 14, 2:50 AM)
Low48 °F (Aug 28, 4:50 AM)35% (Aug 17, 11:50 AM)29.42 "Hg (Aug 24, 12:50 PM)
Average63 °F77%29.87 "Hg
* Reported Aug 14 2:50 AM — Aug 29 2:50 AM, London, Weather by CustomWeather, © 2015

Note: Actual official high and low records may vary slightly from our data, if they occured in-between our weather recording intervals... More about our weather records

Advertising

London weather history for previous 24 hours

 ConditionsComfort  
Time TempWeatherWind HumidityBarometerVisibility
2:50 AM
Sat, Aug 29
57 °FOvercast.5 mph88%30.09 "HgN/A
1:50 AM57 °FOvercast.6 mph88%30.09 "HgN/A
12:50 AM57 °FOvercast.5 mph88%30.09 "HgN/A
11:50 PM
Fri, Aug 28
59 °FOvercast.5 mph82%30.09 "HgN/A
10:50 PM59 °FPassing clouds.8 mph77%30.09 "HgN/A
9:50 PM61 °FClear.8 mph72%30.09 "Hg10 mi
8:50 PM61 °FSunny.9 mph72%30.07 "Hg10 mi
7:50 PM63 °FBroken clouds.9 mph64%30.07 "HgN/A
6:50 PM64 °FScattered clouds.10 mph56%30.04 "HgN/A
5:50 PM66 °FPassing clouds.13 mph56%30.04 "HgN/A
4:50 PM68 °FPassing clouds.10 mph53%30.04 "HgN/A
3:50 PM68 °FScattered clouds.9 mph53%30.04 "HgN/A
2:50 PM66 °FPartly sunny.14 mph52%30.04 "HgN/A
1:50 PM66 °FScattered clouds.14 mph52%30.01 "HgN/A
12:50 PM68 °FPassing clouds.14 mph53%30.01 "HgN/A
11:50 AM66 °FScattered clouds.15 mph56%30.01 "HgN/A
10:50 AM64 °FPassing clouds.12 mph60%30.01 "HgN/A
9:50 AM63 °FPassing clouds.10 mph68%30.01 "HgN/A
8:50 AM57 °FPassing clouds.7 mph82%29.98 "HgN/A
7:50 AM54 °FPassing clouds.2 mph94%29.98 "HgN/A
6:50 AM48 °FFog.1 mph94%29.95 "HgN/A
5:50 AM48 °FClear.1 mph94%29.92 "HgN/A
4:50 AM48 °FClear.2 mph100%29.92 "HgN/A
Weather by CustomWeather, © 2015

See weather overviewHow to use our weather pages